Location: Écuvilly
(49.6505°N, 2.9206°E)
Time: 06:31:47
(UTC+00:00)

Cosmos 1782 Rocket - Pass Details

Date: 17 November 2025
Orbit: 599 x 626 km, 82.5° (Epoch: 12 December)

Event Time Altitude Azimuth Distance (km) Brightness Sun altitude
Rises 17:08:48 0° 193° (SSW) 2,899 7.4 -10.6°
Reaches altitude 10° 17:11:02 10° 195° (SSW) 1,996 6.6 -11.0°
Maximum altitude 17:15:27 74° 281° (W) 654 3.8 -11.7°
Drops below altitude 10° 17:19:54 10° 7° (N) 2,004 6.0 -12.4°
Sets 17:22:09 0° 9° (N) 2,911 6.8 -12.7°
